CW8468 Weather Reports


Display with metric or nautical units.
time (UTC)temp
F
wind
direction
speed
MPH
gust
MPH
rain 1hr
in
rain 24hr
in
rain mn
in
humidity
%
barometer
mb
20260506231004 85 334 1.0 8.0 0.00 0.00 0.00 73 1007.4
20260506230504 85 348 1.0 4.0 0.00 0.00 0.00 72 1007.4
20260506230026 85 263 1.0 3.0 0.00 0.00 0.00 72 1007.4
20260506225501 85 248 1.0 4.0 0.00 0.00 0.00 72 1007.3
20260506225003 85 212 2.0 4.0 0.00 0.00 0.00 72 1007.4
20260506224516 86 312 1.0 4.0 0.00 0.00 0.00 71 1007.4
20260506224003 86 263 1.0 5.0 0.00 0.00 0.00 71 1007.3
20260506223503 86 256 2.0 5.0 0.00 0.00 0.00 71 1007.3
20260506223025 86 235 2.0 3.0 0.00 0.00 0.00 70 1007.3
20260506222501 86 250 1.0 4.0 0.00 0.00 0.00 72 1007.2
20260506222002 85 251 1.0 4.0 0.00 0.00 0.00 72 1007.2
20260506221517 85 264 1.0 3.0 0.00 0.00 0.00 72 1007.2
20260506221003 85 200 1.0 3.0 0.00 0.00 0.00 72 1007.2
20260506220501 85 224 2.0 5.0 0.00 0.00 0.00 71 1007.1
20260506220025 85 232 2.0 5.0 0.00 0.00 0.00 72 1007.1
20260506215501 85 157 2.0 5.0 0.00 0.00 0.00 71 1007.2
20260506215003 85 203 2.0 5.0 0.00 0.00 0.00 71 1007.2
20260506214517 85 194 2.0 6.0 0.00 0.00 0.00 71 1007.2
20260506214003 85 275 2.0 6.0 0.00 0.00 0.00 71 1007.2
20260506213502 85 101 2.0 5.0 0.00 0.00 0.00 71 1007.2
20260506213025 85 125 2.0 4.0 0.00 0.00 0.00 70 1007.3
20260506212502 85 187 2.0 4.0 0.00 0.00 0.00 71 1007.3
20260506212002 86 240 3.0 8.0 0.00 0.00 0.00 70 1007.3
20260506211517 86 258 3.0 7.0 0.00 0.00 0.00 69 1007.3
20260506211002 86 103 3.0 7.0 0.00 0.00 0.00 72 1007.2
20260506210501 85 144 3.0 7.0 0.00 0.00 0.00 74 1007.2
20260506210025 84 164 3.0 7.0 0.00 0.00 0.00 74 1007.3
20260506205501 84 56 2.0 9.0 0.00 0.00 0.00 73 1007.5
20260506205003 85 102 2.0 9.0 0.00 0.00 0.00 71 1007.4
20260506204516 85 263 2.0 7.0 0.00 0.00 0.00 71 1007.5
20260506204002 86 259 2.0 6.0 0.00 0.00 0.00 69 1007.6
20260506203500 85 119 2.0 6.0 0.00 0.00 0.00 70 1007.6
20260506203025 85 160 1.0 5.0 0.00 0.00 0.00 72 1007.6
20260506202501 85 207 2.0 6.0 0.00 0.00 0.00 72 1007.7
20260506202006 85 181 1.0 6.0 0.00 0.00 0.00 71 1007.7
20260506201516 85 176 1.0 4.0 0.00 0.00 0.00 71 1007.7
20260506201001 85 119 2.0 7.0 0.00 0.00 0.00 72 1007.8
20260506200500 84 267 1.0 5.0 0.00 0.00 0.00 74 1007.7
20260506200026 84 180 1.0 5.0 0.00 0.00 0.00 73 1007.8
20260506195501 84 249 1.0 5.0 0.00 0.00 0.00 72 1007.8
20260506194516 84 337 2.0 4.0 0.00 0.00 0.00 73 1008.0
20260506193502 84 124 2.0 4.0 0.00 0.00 0.00 75 1008.0
20260506193025 84 150 2.0 5.0 0.00 0.00 0.00 75 1008.0
20260506192502 84 164 2.0 5.0 0.00 0.00 0.00 75 1008.1
20260506192002 84 186 1.0 4.0 0.00 0.00 0.00 75 1008.1
20260506191517 83 206 1.0 3.0 0.00 0.00 0.00 74 1008.2
20260506191002 84 164 1.0 3.0 0.00 0.00 0.00 75 1008.3
20260506190502 83 212 1.0 5.0 0.00 0.00 0.00 75 1008.4
20260506190025 83 172 2.0 6.0 0.00 0.00 0.00 75 1008.5
20260506185502 83 156 2.0 6.0 0.00 0.00 0.00 76 1008.6
20260506185003 83 161 2.0 3.0 0.00 0.00 0.00 76 1008.6
20260506184517 83 21 2.0 655.0 1.80 0.53 0.00 77
20260506184002 82 135 1.0 4.0 0.00 0.00 0.00 78 1008.6
20260506183502 82 124 2.0 6.0 0.00 0.00 0.00 78 1008.7
20260506183026 82 189 2.0 6.0 0.00 0.00 0.00 77 1008.7
20260506182502 82 181 2.0 5.0 0.00 0.00 0.00 76 1008.8
20260506182002 82 146 2.0 5.0 0.00 0.00 0.00 75 1009.0
20260506180502 83 150 1.0 4.0 0.00 0.00 0.00 77 1009.2
20260506180026 82 172 1.0 3.0 0.00 0.00 0.00 77 1009.4
20260506175501 82 166 1.0 3.0 0.00 0.00 0.00 77 1009.6
20260506174515 81 196 1.0 2.0 0.00 0.00 0.00 78 1009.7
20260506174001 81 152 1.0 3.0 0.00 0.00 0.00 79 1009.8
20260506173500 81 162 1.0 4.0 0.00 0.00 0.00 79 1009.9
20260506173021 81 137 1.0 4.0 0.00 0.00 0.00 79 1009.9
20260506172001 80 131 2.0 5.0 0.00 0.00 0.00 79 1010.0
20260506171516 80 160 2.0 5.0 0.00 0.00 0.00 79 1010.0
20260506171001 80 173 2.0 4.0 0.00 0.00 0.00 79 1010.0
20260506170501 80 141 2.0 4.0 0.00 0.00 0.00 79 1010.1
20260506170026 81 105 2.0 5.0 0.00 0.00 0.00 80 1010.1
20260506165501 80 147 2.0 6.0 0.00 0.00 0.00 80 1010.0
20260506165002 80 143 2.0 5.0 0.00 0.00 0.00 80 1010.0
20260506164517 80 150 2.0 5.0 0.00 0.00 0.00 81 1009.9
20260506164001 80 151 2.0 7.0 0.00 0.00 0.00 81 1010.1
20260506163025 79 173 2.0 6.0 0.00 0.00 0.00 80 1010.0
20260506162500 80 199 2.0 6.0 0.00 0.00 0.00 80 1010.0
20260506162001 80 148 2.0 7.0 0.00 0.00 0.00 79 1009.8
20260506161516 80 191 2.0 7.0 0.00 0.00 0.00 80 1009.6
20260506161002 80 127 3.0 7.0 0.00 0.00 0.00 80 1009.5
20260506160501 80 162 2.0 6.0 0.00 0.00 0.00 81 1009.5
20260506160026 80 135 1.0 4.0 0.00 0.00 0.00 81 1009.6
20260506155500 80 108 1.0 3.0 0.00 0.00 0.00 81 1009.6
20260506154001 79 156 1.0 3.0 0.00 0.00 0.00 82 1009.5
20260506153501 79 130 1.0 3.0 0.00 0.00 0.00 81 1009.5
20260506153026 79 157 1.0 3.0 0.00 0.00 0.00 81 1009.5
20260506152501 80 133 1.0 3.0 0.00 0.00 0.00 81 1009.4
20260506152001 79 183 2.0 7.0 0.00 0.00 0.00 81 1009.4
20260506151516 79 157 2.0 7.0 0.00 0.00 0.00 81 1009.2
20260506151003 79 159 2.0 7.0 0.00 0.00 0.00 81 1009.1
20260506145501 79 128 2.0 5.0 0.00 0.00 0.00 82 1009.0
20260506145002 79 103 2.0 5.0 0.00 0.00 0.00 82 1009.0
20260506144001 79 29 2.0 5.0 0.00 0.00 0.00 83 1008.8
20260506143501 79 71 2.0 4.0 0.00 0.00 0.00 83 1008.6
20260506143024 78 105 3.0 8.0 0.00 0.00 0.00 84 1008.6
20260506142501 78 152 2.0 8.0 0.00 0.00 0.00 84 1008.6
20260506141515 78 180 3.0 7.0 0.00 0.00 0.00 85 1008.6
20260506141000 78 132 2.0 6.0 0.00 0.00 0.00 85 1008.6
20260506140500 78 123 1.0 4.0 0.00 0.00 0.00 86 1008.8
20260506140023 78 169 1.0 4.0 0.00 0.00 0.00 86 1008.8
20260506135500 77 121 2.0 3.0 0.00 0.00 0.00 87 1008.8
20260506135000 77 79 1.0 3.0 0.00 0.00 0.00 87 1008.7
20260506134515 77 113 1.0 4.0 0.00 0.00 0.00 87 1008.9
20260506134001 77 139 1.0 4.0 0.00 0.00 0.00 87 1008.8
20260506133500 77 109 1.0 3.0 0.00 0.00 0.00 88 1008.8
20260506133028 76 187 1.0 4.0 0.00 0.00 0.00 88 1008.8
20260506132008 76 55 2.0 6.0 0.00 0.00 0.00 88 1009.0
20260506131514 76 156 2.0 6.0 0.00 0.00 0.00 88 1009.1
20260506130500 76 184 1.0 5.0 0.00 0.00 0.00 88 1009.0
20260506130032 76 133 1.0 4.0 0.00 0.00 0.00 88 1009.0
20260506125500 76 189 2.0 4.0 0.00 0.00 0.00 89 1009.0
20260506125000 76 159 2.0 4.0 0.00 0.00 0.00 89 1009.0
20260506124000 75 152 2.0 6.0 0.00 0.00 0.00 89 1008.9
20260506123459 75 153 1.0 5.0 0.00 0.00 0.00 89 1008.9
20260506122500 75 183 1.0 6.0 0.00 0.00 0.00 89 1008.8
20260506121515 75 100 1.0 3.0 0.00 0.00 0.00 89 1008.6
20260506120023 75 181 0.0 3.0 0.00 0.00 0.00 89 1008.5
20260506115500 75 157 1.0 3.0 0.00 0.00 0.00 89 1008.5
20260506115000 75 148 0.0 2.0 0.00 0.00 0.00 89 1008.4
20260506114514 74 166 0.0 2.0 0.00 0.00 0.00 89 1008.3
20260506114000 75 155 0.0 1.0 0.00 0.00 0.00 89 1008.3
20260506113500 74 200 0.0 2.0 0.00 0.00 0.00 89 1008.2
20260506112459 74 162 1.0 3.0 0.00 0.00 0.00 89 1008.1
20260506112001 74 150 1.0 4.0 0.00 0.00 0.00 89 1008.0
20260506111514 74 150 1.0 5.0 0.00 0.00 0.00 89 1007.9
20260506111000 74 160 2.0 5.0 0.00 0.00 0.00 88 1007.7
20260506110459 74 141 1.0 3.0 0.00 0.00 0.00 88 1007.7
20260506110020 74 166 1.0 2.0 0.00 0.00 0.00 88 1007.8
20260506105458 74 156 1.0 5.0 0.00 0.00 0.00 88 1007.8
20260506104959 74 179 1.0 5.0 0.00 0.00 0.00 88 1007.7
20260506104002 75 126 1.0 5.0 0.00 0.00 0.00 87 1007.6
20260506103458 75 175 1.0 3.0 0.00 0.00 0.00 87 1007.6
20260506103017 75 170 1.0 3.0 0.00 0.00 0.00 87 1007.7
20260506102458 75 171 1.0 5.0 0.00 0.00 0.00 87 1007.7
20260506101959 75 162 1.0 5.0 0.00 0.00 0.00 86 1007.7
20260506101513 75 215 1.0 3.0 0.00 0.00 0.00 86 1007.7
20260506100458 75 217 1.0 4.0 0.00 0.00 0.00 86 1007.7
20260506095459 75 173 2.0 6.0 0.00 0.00 0.00 86 1007.5
20260506095000 75 166 2.0 5.0 0.00 0.00 0.00 86 1007.5
20260506094514 75 189 1.0 5.0 0.00 0.00 0.00 86 1007.3
20260506094001 75 153 2.0 5.0 0.00 0.00 0.00 86 1007.3
20260506093022 75 143 2.0 6.0 0.00 0.00 0.00 86 1007.2
20260506092501 76 147 2.0 7.0 0.00 0.00 0.00 86 1007.2
20260506092001 76 166 2.0 7.0 0.00 0.00 0.00 85 1007.3
20260506091514 76 129 2.0 7.0 0.00 0.00 0.00 85 1007.3
20260506090500 76 100 3.0 8.0 0.00 0.00 0.00 85 1007.3
20260506090023 76 139 2.0 8.0 0.00 0.00 0.00 85 1007.4
20260506085500 76 164 2.0 8.0 0.00 0.00 0.00 85 1007.5
20260506085001 76 156 2.0 7.0 0.00 0.00 0.00 85 1007.5
20260506084001 76 129 2.0 6.0 0.00 0.00 0.00 85 1007.5
20260506083500 76 348 2.0 6.0 0.00 0.00 0.00 85 1007.5
20260506083026 76 173 2.0 5.0 0.00 0.00 0.00 85 1007.6
20260506082459 76 121 2.0 5.0 0.00 0.00 0.00 85 1007.6
20260506082001 76 233 2.0 7.0 0.00 0.00 0.00 85 1007.5
20260506081515 76 151 2.0 7.0 0.00 0.00 0.00 85 1007.6
20260506080459 76 210 2.0 7.0 0.00 0.00 0.00 85 1007.7
20260506073459 76 191 2.0 5.0 0.00 0.00 0.00 85 1008.1
20260506073023 76 109 2.0 6.0 0.00 0.00 0.00 85 1008.1
20260506072459 76 195 2.0 6.0 0.00 0.00 0.00 85 1008.1
20260506072000 76 177 2.0 7.0 0.00 0.00 0.00 85 1008.2
20260506071514 76 147 3.0 7.0 0.00 0.00 0.00 85 1008.2
20260506071000 76 175 3.0 7.0 0.00 0.00 0.00 85 1008.2
20260506070459 76 195 3.0 7.0 0.00 0.00 0.00 85 1008.2
20260506062458 76 136 3.0 7.0 0.00 0.00 0.00 84 1008.3
20260506061513 76 178 3.0 8.0 0.00 0.00 0.00 84 1008.4
20260506060959 76 156 3.0 8.0 0.00 0.00 0.00 84 1008.4
20260506060458 76 158 3.0 9.0 0.00 0.00 0.00 84 1008.5
20260506051004 77 153 2.0 7.0 0.00 0.00 0.00 83 1008.5
20260506045004 77 189 3.0 10.0 0.00 0.00 0.00 83 1008.2
20260506044518 77 164 3.0 10.0 0.00 0.00 0.00 82 1008.3
20260506044005 77 143 3.0 7.0 0.00 0.00 0.00 82 1008.5
20260506043504 77 133 3.0 8.0 0.00 0.00 0.00 82 1008.6
20260506043026 77 235 3.0 7.0 0.00 0.00 0.00 82 1008.6
20260506042503 77 146 3.0 7.0 0.00 0.00 0.00 82 1008.5
20260506042005 77 160 3.0 8.0 0.00 0.00 0.00 82 1008.4
20260506041518 77 164 3.0 8.0 0.00 0.00 0.00 81 1008.4
20260506041004 77 127 2.0 7.0 0.00 0.00 0.00 81 1008.4
20260506040504 78 249 3.0 7.0 0.00 0.00 0.00 81 1008.3
20260506035504 78 123 3.0 6.0 0.00 0.00 0.00 81 1008.2
20260506035005 78 154 2.0 8.0 0.00 0.00 0.00 81 1008.1
20260506034518 78 166 2.0 8.0 0.00 0.00 0.00 80 1008.1
20260506034003 78 217 2.0 7.0 0.00 0.00 0.00 80 1008.2
20260506033503 78 135 2.0 8.0 0.00 0.00 0.00 80 1008.2
20260506033030 78 147 2.0 8.0 0.00 0.00 0.00 80 1008.1
20260506032503 78 162 3.0 8.0 0.00 0.00 0.00 80 1008.0
20260506032004 78 201 3.0 8.0 0.00 0.00 0.00 80 1007.9
20260506031005 78 162 3.0 10.0 0.00 0.00 0.00 80 1007.6
20260506030503 78 127 3.0 9.0 0.00 0.00 0.00 80 1007.5
20260506030029 78 133 3.0 10.0 0.00 0.00 0.00 80 1007.6
20260506025503 78 137 4.0 10.0 0.00 0.00 0.00 80 1007.6
20260506025006 78 143 3.0 11.0 0.00 0.00 0.00 79 1007.5
20260506024518 78 133 4.0 10.0 0.00 0.00 0.00 79 1007.5
20260506024004 78 201 4.0 10.0 0.00 0.00 0.00 79 1007.4
20260506023504 78 178 3.0 9.0 0.00 0.00 0.00 79 1007.2
20260506023027 78 157 4.0 10.0 0.00 0.00 0.00 79 1007.1
20260506022503 78 171 4.0 10.0 0.00 0.00 0.00 79 1007.0
20260506022005 78 178 4.0 9.0 0.00 0.00 0.00 79 1007.1
20260506021518 79 137 4.0 9.0 0.00 0.00 0.00 78 1007.1
20260506021003 79 208 4.0 9.0 0.00 0.00 0.00 78 1007.1
20260506020026 79 145 2.0 7.0 0.00 0.00 0.00 77 1006.9
20260506015502 79 236 2.0 6.0 0.00 0.00 0.00 77 1006.9
20260506014518 79 235 2.0 9.0 0.00 0.00 0.00 77 1006.8
20260506014003 79 158 2.0 6.0 0.00 0.00 0.00 77 1006.7
20260506013503 79 200 3.0 6.0 0.00 0.00 0.00 77 1006.6
20260506013026 79 150 3.0 6.0 0.00 0.00 0.00 76 1006.6
20260506012502 79 212 3.0 10.0 0.00 0.00 0.00 76 1006.4
20260506012004 79 162 3.0 12.0 0.00 0.00 0.00 76 1006.3
20260506011517 79 159 2.0 9.0 0.00 0.00 0.00 76 1006.2
20260506011003 79 148 2.0 7.0 0.00 0.00 0.00 75 1006.2
20260506010503 79 195 2.0 6.0 0.00 0.00 0.00 74 1006.1
20260506010027 80 168 3.0 7.0 0.00 0.00 0.00 74 1006.0
20260506004517 80 209 3.0 9.0 0.00 0.00 0.00 74 1005.9
20260506004003 80 181 3.0 9.0 0.00 0.00 0.00 74 1005.9
20260506003025 80 155 3.0 8.0 0.00 0.00 0.00 75 1006.0
20260506002502 80 176 3.0 8.0 0.00 0.00 0.00 75 1005.9
20260506002003 80 128 3.0 8.0 0.00 0.00 0.00 75 1005.7
20260506001517 80 184 3.0 8.0 0.00 0.00 0.00 74 1005.7
20260506001003 81 150 3.0 8.0 0.00 0.00 0.00 74 1005.8
20260506000026 81 37 3.0 7.0 0.00 0.00 0.00 73 1005.9
20260505235502 81 178 3.0 10.0 0.00 0.00 0.00 73 1005.9
20260505235004 81 200 4.0 10.0 0.00 0.00 0.00 73 1005.8
20260505234517 81 177 4.0 8.0 0.00 0.00 0.00 72 1005.8
20260505234003 81 152 4.0 8.0 0.00 0.00 0.00 73 1005.7
20260505233503 81 173 4.0 9.0 0.00 0.00 0.00 73 1005.7
20260505233025 81 155 4.0 10.0 0.00 0.00 0.00 73 1005.8
20260505232503 81 191 4.0 10.0 0.00 0.00 0.00 73 1005.7
20260505232003 81 146 3.0 9.0 0.00 0.00 0.00 73 1005.7